| time (UTC) | temp F | wind direction | speed knots | gust knots | rain 1hr in | rain 24hr in | rain mn in | humidity % | barometer mb |
| 20260901104452 | 75 | 25 | 0.0 | 0.0 | 0.00 | 0.00 | 0.00 | 99 | 1013.3 |
| 20260901103451 | 75 | 25 | 0.0 | 0.0 | 0.00 | 0.00 | 0.00 | 99 | 1013.3 |
| 20260901102450 | 75 | 24 | 0.0 | 0.0 | 0.00 | 0.00 | 0.00 | 99 | 1013.3 |
| 20260901101449 | 75 | 25 | 0.0 | 0.0 | 0.00 | 0.00 | 0.00 | 99 | 1013.3 |
| 20260901100448 | 75 | 24 | 0.0 | 0.0 | 0.00 | 0.00 | 0.00 | 99 | 1013.3 |
| 20260901095448 | 75 | 25 | 0.0 | 0.0 | 0.00 | 0.00 | 0.00 | 99 | 1013.3 |
| 20260901094447 | 75 | 24 | 0.0 | 0.0 | 0.00 | 0.00 | 0.00 | 99 | 1013.3 |
| 20260901093446 | 75 | 24 | 0.0 | 0.0 | 0.00 | 0.00 | 0.00 | 99 | 1013.3 |
| 20260901092445 | 75 | 24 | 0.0 | 0.0 | 0.00 | 0.00 | 0.00 | 99 | 1013.3 |
| 20260901091444 | 76 | 25 | 0.0 | 0.0 | 0.00 | 0.00 | 0.00 | 99 | 1013.0 |
| 20260901090341 | 76 | 25 | 0.0 | 0.0 | 0.00 | 0.00 | 0.00 | 99 | 1013.0 |
| 20260901085309 | 76 | 24 | 0.0 | 0.0 | 0.00 | 0.00 | 0.00 | 99 | 1013.0 |
| 20260901084308 | 76 | 25 | 0.0 | 0.0 | 0.00 | 0.00 | 0.00 | 99 | 1013.0 |
| 20260901083307 | 76 | 24 | 0.0 | 0.9 | 0.00 | 0.00 | 0.00 | 99 | 1013.0 |
| 20260901082306 | 76 | 25 | 0.0 | 0.9 | 0.00 | 0.00 | 0.00 | 99 | 1013.0 |
| 20260901081234 | 76 | 25 | 0.0 | 0.0 | 0.00 | 0.00 | 0.00 | 99 | 1013.4 |
| 20260901080233 | 76 | 25 | 0.0 | 0.9 | 0.00 | 0.00 | 0.00 | 99 | 1013.4 |
| 20260901075232 | 76 | 24 | 0.0 | 0.9 | 0.00 | 0.00 | 0.00 | 99 | 1013.4 |
| 20260901074232 | 76 | 24 | 0.9 | 0.9 | 0.00 | 0.00 | 0.00 | 99 | 1013.4 |
| 20260901073230 | 76 | 15 | 0.9 | 0.9 | 0.00 | 0.00 | 0.00 | 99 | 1013.4 |
| 20260901072229 | 75 | 15 | 0.0 | 0.0 | 0.00 | 0.00 | 0.00 | 99 | 1013.3 |
| 20260901071229 | 75 | 15 | 0.0 | 0.0 | 0.00 | 0.00 | 0.00 | 98 | 1013.3 |
| 20260901070228 | 75 | 15 | 0.0 | 0.0 | 0.00 | 0.00 | 0.00 | 98 | 1013.4 |
| 20260901065227 | 76 | 15 | 0.0 | 0.0 | 0.00 | 0.00 | 0.00 | 98 | 1013.7 |
| 20260901064226 | 76 | 15 | 0.0 | 0.9 | 0.00 | 0.00 | 0.00 | 98 | 1013.7 |
| 20260901063225 | 76 | 15 | 0.0 | 0.9 | 0.00 | 0.00 | 0.00 | 98 | 1013.7 |
| 20260901062224 | 76 | 15 | 0.0 | 0.0 | 0.00 | 0.00 | 0.00 | 98 | 1014.0 |
| 20260901061223 | 76 | 15 | 0.0 | 0.0 | 0.00 | 0.00 | 0.00 | 98 | 1014.0 |
| 20260901060222 | 76 | 15 | 0.0 | 0.0 | 0.00 | 0.00 | 0.00 | 98 | 1014.0 |
| 20260901055150 | 76 | 14 | 0.0 | 0.0 | 0.00 | 0.00 | 0.00 | 98 | 1014.4 |
| 20260901054149 | 76 | 15 | 0.0 | 0.0 | 0.00 | 0.00 | 0.00 | 98 | 1014.4 |
| 20260901053148 | 77 | 15 | 0.0 | 0.0 | 0.00 | 0.00 | 0.00 | 98 | 1014.4 |
| 20260901052147 | 77 | 15 | 0.0 | 0.0 | 0.00 | 0.00 | 0.00 | 98 | 1014.4 |
| 20260901051147 | 77 | 15 | 0.0 | 0.0 | 0.00 | 0.00 | 0.00 | 98 | 1014.7 |
| 20260901050146 | 77 | 15 | 0.0 | 0.0 | 0.00 | 0.00 | 0.00 | 97 | 1014.7 |
| 20260901045145 | 77 | 15 | 0.0 | 0.0 | 0.00 | 0.00 | 0.00 | 97 | 1014.7 |
| 20260901044144 | 77 | 15 | 0.0 | 0.0 | 0.00 | 0.00 | 0.00 | 97 | 1015.0 |
| 20260901043143 | 78 | 15 | 0.0 | 0.0 | 0.00 | 0.00 | 0.00 | 97 | 1015.1 |
| 20260901042142 | 78 | 15 | 0.0 | 0.0 | 0.00 | 0.00 | 0.00 | 97 | 1015.1 |
| 20260901041110 | 78 | 15 | 0.0 | 0.9 | 0.00 | 0.00 | 0.00 | 97 | 1015.1 |
| 20260901040008 | 78 | 15 | 0.9 | 0.9 | 0.00 | 0.00 | 0.00 | 97 | 1015.1 |
| 20260901035005 | 78 | 15 | 0.0 | 0.0 | 0.00 | 0.00 | 0.00 | 97 | 1015.1 |
| 20260901034004 | 78 | 15 | 0.0 | 0.0 | 0.00 | 0.00 | 0.00 | 97 | 1015.1 |
| 20260901032932 | 78 | 15 | 0.0 | 0.0 | 0.00 | 0.00 | 0.00 | 96 | 1015.1 |
| 20260901031931 | 78 | 15 | 0.0 | 0.0 | 0.00 | 0.00 | 0.00 | 96 | 1015.1 |
| 20260901030930 | 78 | 15 | 0.0 | 0.0 | 0.00 | 0.00 | 0.00 | 96 | 1015.1 |
| 20260901025930 | 79 | 15 | 0.0 | 0.0 | 0.00 | 0.00 | 0.00 | 96 | 1015.1 |
| 20260901024929 | 79 | 15 | 0.0 | 0.0 | 0.00 | 0.00 | 0.00 | 95 | 1015.1 |
| 20260901023857 | 79 | 14 | 0.0 | 0.0 | 0.00 | 0.00 | 0.00 | 95 | 1015.1 |
| 20260901022856 | 79 | 15 | 0.0 | 0.9 | 0.00 | 0.00 | 0.00 | 95 | 1015.1 |
| 20260901021855 | 79 | 15 | 0.0 | 0.9 | 0.00 | 0.00 | 0.00 | 95 | 1015.1 |
| 20260901020854 | 79 | 15 | 0.9 | 0.9 | 0.00 | 0.00 | 0.00 | 95 | 1015.1 |
| 20260901015853 | 79 | 15 | 0.9 | 0.9 | 0.00 | 0.00 | 0.00 | 95 | 1015.1 |
| 20260901014852 | 79 | 15 | 0.0 | 0.9 | 0.00 | 0.00 | 0.00 | 95 | 1015.1 |
| 20260901013852 | 79 | 15 | 0.9 | 0.9 | 0.00 | 0.00 | 0.00 | 95 | 1014.7 |
| 20260901012851 | 79 | 15 | 0.0 | 0.0 | 0.00 | 0.00 | 0.00 | 95 | 1014.4 |
| 20260901011850 | 79 | 15 | 0.0 | 0.0 | 0.00 | 0.00 | 0.00 | 95 | 1014.4 |
| 20260901010849 | 80 | 15 | 0.0 | 0.0 | 0.00 | 0.00 | 0.00 | 95 | 1014.4 |
| 20260901005848 | 80 | 15 | 0.0 | 0.0 | 0.00 | 0.00 | 0.00 | 95 | 1014.4 |
| 20260901004848 | 80 | 15 | 0.0 | 0.0 | 0.00 | 0.00 | 0.00 | 95 | 1014.0 |
| 20260901003847 | 80 | 15 | 0.0 | 0.0 | 0.00 | 0.00 | 0.00 | 95 | 1014.0 |
| 20260901002846 | 80 | 15 | 0.0 | 0.0 | 0.00 | 0.00 | 0.00 | 95 | 1014.0 |
| 20260901001846 | 80 | 15 | 0.0 | 0.0 | 0.00 | 0.00 | 0.00 | 94 | 1014.0 |
| 20260901000845 | 80 | 15 | 0.0 | 0.0 | 0.00 | 0.00 | 0.00 | 94 | 1014.0 |
| 20260831235844 | 80 | 15 | 0.0 | 0.0 | 0.00 | 0.00 | 0.00 | 94 | 1014.0 |
| 20260831234843 | 80 | 15 | 0.0 | 0.0 | 0.00 | 0.00 | 0.00 | 93 | 1014.0 |
| 20260831233843 | 79 | 15 | 0.0 | 0.0 | 0.00 | 0.00 | 0.00 | 93 | 1014.0 |
| 20260831232811 | 79 | 15 | 0.0 | 0.9 | 0.00 | 0.00 | 0.00 | 93 | 1014.0 |
| 20260831231810 | 79 | 15 | 0.0 | 0.9 | 0.00 | 0.00 | 0.00 | 93 | 1013.7 |
| 20260831230707 | 79 | 28 | 0.0 | 1.7 | 0.00 | 0.00 | 0.00 | 92 | 1013.7 |
| 20260831225706 | 80 | 46 | 0.0 | 0.0 | 0.00 | 0.00 | 0.00 | 92 | 1014.0 |
| 20260831224705 | 80 | 46 | 0.0 | 0.0 | 0.00 | 0.00 | 0.00 | 92 | 1014.0 |
| 20260831223704 | 80 | 45 | 0.0 | 0.9 | 0.00 | 0.00 | 0.00 | 91 | 1014.0 |
| 20260831222703 | 80 | 307 | 0.0 | 0.9 | 0.00 | 0.00 | 0.00 | 91 | 1014.0 |
| 20260831221600 | 80 | 284 | 0.0 | 0.9 | 0.00 | 0.00 | 0.00 | 91 | 1014.0 |
| 20260831220529 | 80 | 282 | 0.9 | 0.9 | 0.00 | 0.00 | 0.00 | 90 | 1014.3 |
| 20260831215457 | 80 | 259 | 0.0 | 0.9 | 0.00 | 0.00 | 0.00 | 90 | 1014.3 |
| 20260831214456 | 81 | 257 | 0.0 | 0.9 | 0.00 | 0.00 | 0.00 | 89 | 1014.4 |
| 20260831213353 | 82 | 281 | 0.9 | 1.7 | 0.00 | 0.00 | 0.00 | 88 | 1014.4 |
| 20260831212321 | 82 | 281 | 0.0 | 1.7 | 0.00 | 0.00 | 0.00 | 87 | 1014.4 |
| 20260831211249 | 85 | 243 | 0.0 | 1.7 | 0.00 | 0.00 | 0.00 | 82 | 1014.4 |
| 20260831210248 | 85 | 9 | 0.9 | 3.5 | 0.00 | 0.00 | 0.00 | 79 | 1014.4 |
| 20260831205247 | 86 | 50 | 1.7 | 4.3 | 0.00 | 0.00 | 0.00 | 77 | 1014.0 |
| 20260831204215 | 86 | 54 | 0.9 | 4.3 | 0.00 | 0.00 | 0.00 | 75 | 1014.0 |
| 20260831203214 | 86 | 45 | 0.9 | 4.3 | 0.00 | 0.00 | 0.00 | 76 | 1014.0 |
| 20260831202214 | 86 | 9 | 0.9 | 9.6 | 0.00 | 0.00 | 0.00 | 77 | 1014.0 |
| 20260831201142 | 87 | 44 | 1.7 | 10.4 | 0.00 | 0.00 | 0.00 | 75 | 1013.7 |
| 20260831200141 | 87 | 13 | 2.6 | 7.0 | 0.00 | 0.00 | 0.00 | 75 | 1014.0 |
| 20260831195140 | 87 | 103 | 1.7 | 5.2 | 0.00 | 0.00 | 0.00 | 74 | 1013.7 |
| 20260831194139 | 87 | 69 | 0.9 | 4.3 | 0.00 | 0.00 | 0.00 | 76 | 1013.7 |
| 20260831193138 | 86 | 131 | 0.9 | 3.5 | 0.00 | 0.00 | 0.00 | 83 | 1014.0 |
| 20260831192137 | 87 | 174 | 1.7 | 3.5 | 0.00 | 0.00 | 0.00 | 80 | 1014.0 |
| 20260831191106 | 88 | 183 | 1.7 | 4.3 | 0.00 | 0.00 | 0.00 | 79 | 1013.7 |
| 20260831190104 | 89 | 189 | 0.9 | 5.2 | 0.00 | 0.00 | 0.00 | 77 | 1014.0 |
| 20260831185103 | 89 | 57 | 2.6 | 5.2 | 0.00 | 0.00 | 0.00 | 74 | 1014.0 |
| 20260831184102 | 89 | 359 | 0.9 | 3.5 | 0.00 | 0.00 | 0.00 | 77 | 1014.0 |
| 20260831183030 | 89 | 83 | 0.9 | 4.3 | 0.00 | 0.00 | 0.00 | 76 | 1014.0 |
| 20260831182030 | 87 | 74 | 0.9 | 3.5 | 0.00 | 0.00 | 0.00 | 79 | 1014.4 |
| 20260831181029 | 86 | 79 | 0.9 | 4.3 | 0.00 | 0.00 | 0.00 | 80 | 1014.4 |
| 20260831180028 | 85 | 31 | 0.9 | 3.5 | 0.00 | 0.00 | 0.00 | 81 | 1014.4 |
| 20260831175027 | 84 | 52 | 0.9 | 4.3 | 0.00 | 0.00 | 0.00 | 82 | 1014.4 |
| 20260831174026 | 84 | 1 | 1.7 | 5.2 | 0.00 | 0.00 | 0.00 | 83 | 1014.7 |
| 20260831173025 | 84 | 38 | 1.7 | 5.2 | 0.00 | 0.00 | 0.00 | 84 | 1015.0 |
| 20260831172024 | 83 | 58 | 1.7 | 6.1 | 0.00 | 0.00 | 0.00 | 81 | 1015.4 |
| 20260831171023 | 83 | 85 | 1.7 | 7.0 | 0.00 | 0.00 | 0.00 | 80 | 1015.4 |
| 20260831170022 | 83 | 34 | 1.7 | 7.8 | 0.00 | 0.00 | 0.00 | 81 | 1015.4 |
| 20260831165022 | 84 | 24 | 4.3 | 8.7 | 0.00 | 0.00 | 0.00 | 78 | 1015.7 |
| 20260831164020 | 87 | 36 | 3.5 | 8.7 | 0.00 | 0.00 | 0.00 | 74 | 1015.7 |
| 20260831163020 | 89 | 37 | 1.7 | 2.6 | 0.00 | 0.00 | 0.00 | 71 | 1015.4 |
| 20260831161916 | 89 | 26 | 0.9 | 1.7 | 0.00 | 0.00 | 0.00 | 73 | 1015.4 |
| 20260831160916 | 88 | 53 | 0.9 | 1.7 | 0.00 | 0.00 | 0.00 | 73 | 1015.4 |
| 20260831155915 | 89 | 108 | 0.9 | 1.7 | 0.00 | 0.00 | 0.00 | 71 | 1015.7 |
| 20260831154843 | 87 | 338 | 0.0 | 1.7 | 0.00 | 0.00 | 0.00 | 76 | 1015.7 |
| 20260831153842 | 87 | 69 | 0.9 | 1.7 | 0.00 | 0.00 | 0.00 | 75 | 1016.1 |
| 20260831152841 | 87 | 320 | 0.0 | 2.6 | 0.00 | 0.00 | 0.00 | 74 | 1015.7 |
| 20260831151738 | 87 | 19 | 0.0 | 2.6 | 0.00 | 0.00 | 0.00 | 78 | 1015.7 |
| 20260831150738 | 88 | 338 | 0.0 | 1.7 | 0.00 | 0.00 | 0.00 | 79 | 1015.7 |
| 20260831145737 | 88 | 69 | 0.9 | 1.7 | 0.00 | 0.00 | 0.00 | 78 | 1015.7 |
| 20260831144705 | 87 | 40 | 0.0 | 3.5 | 0.00 | 0.00 | 0.00 | 81 | 1015.7 |
| 20260831143704 | 87 | 26 | 2.6 | 3.5 | 0.00 | 0.00 | 0.00 | 80 | 1015.7 |
| 20260831142703 | 86 | 304 | 0.0 | 0.9 | 0.00 | 0.00 | 0.00 | 85 | 1015.4 |
| 20260831141703 | 86 | 315 | 0.0 | 1.7 | 0.00 | 0.00 | 0.00 | 85 | 1015.4 |
| 20260831140702 | 86 | 315 | 0.9 | 2.6 | 0.00 | 0.00 | 0.00 | 86 | 1015.4 |
| 20260831135630 | 85 | 311 | 0.9 | 2.6 | 0.00 | 0.00 | 0.00 | 86 | 1015.4 |
| 20260831134629 | 85 | 41 | 0.9 | 1.7 | 0.00 | 0.00 | 0.00 | 88 | 1015.4 |
| 20260831133628 | 84 | 63 | 0.9 | 1.7 | 0.00 | 0.00 | 0.00 | 89 | 1015.4 |
| 20260831132556 | 83 | 15 | 0.9 | 2.6 | 0.00 | 0.00 | 0.00 | 91 | 1015.4 |
| 20260831131554 | 82 | 133 | 0.9 | 2.6 | 0.00 | 0.00 | 0.00 | 93 | 1015.0 |
| 20260831130553 | 82 | 23 | 1.7 | 2.6 | 0.00 | 0.00 | 0.00 | 93 | 1015.0 |
| 20260831125552 | 81 | 332 | 0.0 | 2.6 | 0.00 | 0.00 | 0.00 | 95 | 1015.0 |
| 20260831124551 | 79 | 33 | 0.9 | 2.6 | 0.00 | 0.00 | 0.00 | 96 | 1015.0 |
| 20260831123551 | 78 | 25 | 1.7 | 2.6 | 0.00 | 0.00 | 0.00 | 99 | 1015.0 |
| 20260831122550 | 78 | 54 | 0.9 | 0.9 | 0.00 | 0.00 | 0.00 | 100 | 1015.0 |
| 20260831121549 | 77 | 11 | 0.0 | 0.9 | 0.00 | 0.00 | 0.00 | 100 | 1014.7 |
| 20260831120520 | 76 | 11 | 0.0 | 0.9 | 0.00 | 0.00 | 0.00 | 100 | 1014.7 |
| 20260831114619 | 74 | 10 | 0.0 | 0.0 | 0.00 | 0.00 | 0.00 | 99 | 1014.7 |
| 20260831113619 | 74 | 10 | 0.0 | 0.0 | 0.00 | 0.00 | 0.00 | 99 | 1014.4 |
| 20260831112618 | 74 | 10 | 0.0 | 0.0 | 0.00 | 0.00 | 0.00 | 99 | 1014.4 |
| 20260831111617 | 74 | 11 | 0.0 | 0.0 | 0.00 | 0.00 | 0.00 | 99 | 1014.4 |
| 20260831110616 | 74 | 11 | 0.0 | 0.0 | 0.00 | 0.00 | 0.00 | 99 | 1014.4 |
| 20260831105616 | 74 | 11 | 0.0 | 0.0 | 0.00 | 0.00 | 0.00 | 99 | 1014.0 |